EW2580 Weather Reports


time (UTC)temp
F
wind
direction
speed
knots
gust
knots
rain 1hr
in
rain 24hr
in
rain mn
in
humidity
%
barometer
mb
20260505041601 57 99 0.0 7.0 0.00 0.00 0.00 73 1006.3
20260505040058 56 140 1.7 5.2 0.00 0.00 0.00 75 1006.3
20260505034606 55 98 3.5 7.0 0.00 0.00 0.00 79 1006.4
20260505033047 54 209 0.0 4.3 0.00 0.00 0.00 81 1006.4
20260505031546 53 258 0.9 3.5 0.00 0.00 0.00 84 1006.5
20260505030049 53 272 0.9 3.5 0.00 0.00 0.00 84 1006.5
20260505024549 54 109 0.0 2.6 0.00 0.00 0.00 82 1006.3
20260505023047 55 244 0.9 3.5 0.00 0.00 0.00 80 1006.4
20260505021545 56 219 0.0 0.9 0.00 0.00 0.00 80 1006.6
20260505020059 57 219 0.0 1.7 0.00 0.00 0.00 79 1006.7
20260505014543 57 219 0.0 1.7 0.00 0.00 0.00 76 1006.6
20260505013044 57 9 0.9 4.3 0.00 0.00 0.00 72 1006.7
20260505011545 59 275 0.9 2.6 0.00 0.00 0.00 64 1006.6
20260505010054 61 238 0.0 1.7 0.00 0.00 0.00 57 1006.2
20260505004642 63 238 0.0 2.6 0.00 0.00 0.00 55 1005.9
20260505003039 64 184 1.7 4.3 0.00 0.00 0.00 47 1005.8
20260505001541 65 101 0.9 5.2 0.00 0.00 0.00 45 1005.8
20260505000039 66 89 2.6 8.7 0.00 0.00 0.00 44 1006.0
20260504234538 67 293 2.6 7.8 0.00 0.00 0.00 43 1006.0
20260504233037 67 164 2.6 7.8 0.00 0.00 0.00 41 1005.9
20260504231540 67 156 2.6 7.8 0.00 0.00 0.00 40 1005.7
20260504230037 67 249 0.9 7.8 0.00 0.00 0.00 39 1005.8
20260504224540 68 241 1.7 8.7 0.00 0.00 0.00 39 1005.8
20260504223035 69 124 4.3 11.3 0.00 0.00 0.00 38 1005.8
20260504221543 69 89 1.7 13.9 0.00 0.00 0.00 37 1005.7
20260504220033 70 205 7.0 15.6 0.00 0.00 0.00 35 1005.7
20260504214531 70 254 5.2 13.0 0.00 0.00 0.00 33 1005.7
20260504213038 71 271 2.6 12.2 0.00 0.00 0.00 30 1005.5
20260504211534 72 188 3.5 13.9 0.00 0.00 0.00 29 1005.6
20260504210028 72 308 6.1 14.8 0.00 0.00 0.00 28 1005.7
20260504204531 72 181 7.0 13.0 0.00 0.00 0.00 31 1005.6
20260504203027 72 236 3.5 15.6 0.00 0.00 0.00 31 1005.8
20260504201527 72 217 6.1 9.6 0.00 0.00 0.00 29 1005.9
20260504200026 73 182 5.2 12.2 0.00 0.00 0.00 29 1006.0
20260504194524 72 254 4.3 13.9 0.00 0.00 0.00 27 1006.4
20260504193019 71 103 1.7 11.3 0.00 0.00 0.00 30 1006.6
20260504191515 71 132 5.2 17.4 0.00 0.00 0.00 32 1006.9
20260504190019 71 64 2.6 14.8 0.00 0.00 0.00 33 1007.1
20260504184527 70 12 1.7 15.6 0.00 0.00 0.00 35 1007.1
20260504183010 70 284 3.5 12.2 0.00 0.00 0.00 35 1007.4
20260504181509 70 264 6.1 15.6 0.00 0.00 0.00 33 1007.7
20260504180006 69 212 2.6 10.4 0.00 0.00 0.00 36 1007.8
20260504174503 68 44 3.5 11.3 0.00 0.00 0.00 36 1008.0
20260504173105 67 349 6.1 20.0 0.00 0.00 0.00 40 1008.1
20260504171601 67 31 5.2 12.2 0.00 0.00 0.00 38 1008.3
20260504081517 32 355 0.0 2.6 0.00 0.00 0.00 93 1012.2
20260504044549 34 346 0.0 1.7 0.00 0.00 0.00 87 1013.1
20260504043047 34 346 0.0 1.7 0.00 0.00 0.00 87 1013.1